Regional Weather Roundup
Issued by NWS

Home | Current Version | Previous Version | Graphics & Text | Print | Product List | Glossary On
Versions: 1 2 3 4 5 6 7 8 9 10 11 12 13 14 15 16 17 18 19 20 21 22 23 24 25 26 27 28 29 30 31 32 33 34 35 36 37 38 39 40 41 42 43 44 45 46 47 48 49 50
000
ASUS43 KLMK 031910
RWRKY
KENTUCKY REGIONAL WEATHER ROUNDUP
NATIONAL WEATHER SERVICE LOUISVILLE KY
300 PM EDT TUE MAY 03 2016

NOTE "FAIR" INDICATES FEW OR NO CLOUDS BELOW 12,000 FEET
WITH NO SIGNIFICANT WEATHER AND/OR OBSTRUCTIONS TO VISIBILITY.

KYZ001>023-026-027-061>063-070>075-032000-
WESTERN AND SOUTH CENTRAL KENTUCKY

CITY           SKY/WX    TMP DP  RH WIND       PRES   REMARKS
PADUCAH        CLOUDY    61  45  55 N7        29.98F
HENDERSON      CLOUDY    63  43  48 NW9       29.95F
OWENSBORO      CLOUDY    63  44  49 NW15      29.96F
HOPKINSVILLE   PTSUNNY   63  46  53 W10       29.96F
BOWLING GREEN  CLOUDY    63  46  54 W7        29.94F
GLASGOW        CLOUDY    60  47  61 NW5       29.94F
$$

KYZ024-025-028>034-038-045-046-053-032000-
NORTH CENTRAL KENTUCKY

CITY           SKY/WX    TMP DP  RH WIND       PRES   REMARKS
LOUISVILLE/SDF PTSUNNY   65  43  44 W14       29.90F
LOUISVILLE/LOU CLOUDY    64  43  46 NW10      29.91S
FORT KNOX      MOSUNNY   63  44  49 W13G20    29.90F
$$

KYZ035>037-039>044-047>052-055>060-089>105-032000-
NORTHEAST KENTUCKY

CITY           SKY/WX    TMP DP  RH WIND       PRES   REMARKS
LEXINGTON      CLOUDY    60  47  61 W7        29.91F
COVINGTON      CLOUDY    58  49  72 N13       29.89F
FRANKFORT      CLOUDY    61  46  57 VRB5      29.90S
$$

KYZ054-064>069-076>088-106>120-032000-
SOUTHEAST KENTUCKY

CITY           SKY/WX    TMP DP  RH WIND       PRES   REMARKS
JACKSON        PTSUNNY   63  48  58 VRB6G16   29.88F
LONDON         CLOUDY    60  47  61 NW12      29.91F
SOMERSET       CLOUDY    61  46  59 NW6       29.93F
MIDDLESBORO    CLOUDY    66  51  58 W7        29.90F
MONTICELLO     MOCLDY    62  50  64 NW15      29.94F
$$




USA.gov is the U.S. government's official web portal to all federal, state and local government web resources and services.